This demonstration page uses our WeatherBlox Daily Observations layout. Learn more.

Left ArrowRight Arrow

Hourly Observations for January 28, 2020

Temp ( °F °C ) Dew Point ( °F °C ) Humidity (%) Winds ( mph kmh ) Pressure ( in mb ) Visibility ( mi km ) Precip ( " mm )
12:15 am 00:15 Cloudy 32 0 32 0 100 100 NW 3 6 30.09 1019 5 8.0467 N/A
12:35 am 00:35 Cloudy 32 0 32 0 100 100 WNW 5 7 30.09 1019 5 8.0467 N/A
12:56 am 00:56 Cloudy 32 0 32 0 100 100 WNW 6 9 30.09 1019 4 6.43736 N/A
1:16 am 01:16 Cloudy 32 0 32 0 100 100 W 7 11 30.09 1019 4 6.43736 N/A
1:36 am 01:36 Cloudy 30 -1 30 -1 100 100 WNW 7 11 30.09 1019 5 8.0467 N/A
1:56 am 01:56 Cloudy 30 -1 30 -1 100 100 WNW 6 9 30.1 1019 7 11.26538 N/A
2:15 am 02:15 Cloudy 30 -1 30 -1 100 100 WNW 7 11 30.1 1019 7 11.26538 N/A
2:36 am 02:36 Cloudy 30 -1 30 -1 100 100 WNW 5 7 30.1 1019 7 11.26538 N/A
2:55 am 02:55 Cloudy 30 -1 30 -1 100 100 WNW 6 9 30.11 1020 7 11.26538 N/A
3:15 am 03:15 Cloudy 30 -1 30 -1 100 100 WNW 7 11 30.11 1020 7 11.26538 N/A
3:36 am 03:36 Cloudy 30 -1 30 -1 100 100 WNW 8 13 30.11 1020 7 11.26538 N/A
3:55 am 03:55 Cloudy 30 -1 30 -1 100 100 WNW 7 11 30.11 1020 10 16.0934 N/A
4:15 am 04:15 Cloudy 30 -1 30 -1 100 100 WNW 7 11 30.11 1020 7 11.26538 N/A
4:36 am 04:36 Cloudy 30 -1 30 -1 100 100 WNW 5 7 30.11 1020 10 16.0934 N/A
4:56 am 04:56 Cloudy 30 -1 30 -1 100 100 W 5 7 30.1 1019 7 11.26538 N/A
5:16 am 05:16 Cloudy 30 -1 30 -1 100 100 WNW 5 7 30.1 1019 7 11.26538 N/A
5:36 am 05:36 Cloudy 30 -1 30 -1 100 100 W 6 9 30.11 1020 7 11.26538 N/A
5:55 am 05:55 Cloudy 30 -1 30 -1 100 100 WNW 5 7 30.11 1020 7 11.26538 N/A
6:16 am 06:16 Cloudy 30 -1 30 -1 100 100 WNW 3 6 30.11 1020 7 11.26538 N/A
6:36 am 06:36 Cloudy 30 -1 30 -1 100 100 WNW 3 6 30.11 1020 7 11.26538 N/A
6:56 am 06:56 Cloudy 30 -1 30 -1 100 100 Calm 30.12 1020 7 11.26538 N/A
7:16 am 07:16 Cloudy 30 -1 30 -1 100 100 WNW 3 6 30.12 1020 7 11.26538 N/A
7:35 am 07:35 Cloudy 30 -1 30 -1 100 100 WNW 5 7 30.12 1020 7 11.26538 N/A
7:55 am 07:55 Cloudy 30 -1 30 -1 100 100 W 3 6 30.13 1020 5 8.0467 N/A
8:15 am 08:15 Cloudy 30 -1 30 -1 100 100 W 3 6 30.14 1021 4 6.43736 N/A
8:36 am 08:36 Cloudy 30 -1 30 -1 100 100 W 5 7 30.14 1021 4 6.43736 N/A
8:56 am 08:56 Cloudy 30 -1 30 -1 100 100 W 6 9 30.14 1021 4 6.43736 N/A
9:15 am 09:15 Cloudy 30 -1 30 -1 100 100 W 6 9 30.15 1021 4 6.43736 N/A
9:36 am 09:36 Cloudy 30 -1 30 -1 100 100 W 6 9 30.16 1021 4 6.43736 N/A
9:56 am 09:56 Cloudy 30 -1 30 -1 100 100 W 5 7 30.16 1021 3 4.82802 N/A
10:15 am 10:15 Cloudy 32 0 32 0 100 100 WNW 5 7 30.16 1021 3 4.82802 N/A
10:35 am 10:35 Cloudy 32 0 32 0 100 100 W 6 9 30.16 1021 3 4.82802 N/A
10:56 am 10:56 Cloudy 32 0 32 0 100 100 WNW 5 7 30.16 1021 4 6.43736 N/A
11:15 am 11:15 Cloudy 32 0 32 0 100 100 WNW 3 6 30.16 1021 3 4.82802 N/A
11:35 am 11:35 Cloudy 32 0 32 0 100 100 Calm 30.16 1021 3 4.82802 N/A
11:56 am 11:56 Cloudy 32 0 32 0 100 100 NW 3 6 30.15 1021 2.5 4.02335 N/A
12:15 pm 12:15 Cloudy 32 0 32 0 100 100 Calm 30.14 1020 2.5 4.02335 N/A
12:36 pm 12:36 Cloudy 32 0 32 0 100 100 Calm 30.14 1020 4 6.43736 N/A
12:55 pm 12:55 Cloudy 32 0 32 0 100 100 Calm 30.13 1020 5 8.0467 N/A
1:16 pm 13:16 Cloudy 32 0 32 0 100 100 Calm 30.12 1020 5 8.0467 N/A
1:35 pm 13:35 Cloudy 32 0 32 0 100 100 Calm 30.11 1019 7 11.26538 N/A
1:56 pm 13:56 Cloudy 32 0 32 0 100 100 Calm 30.11 1019 7 11.26538 N/A
2:16 pm 14:16 Cloudy 32 0 32 0 100 100 Calm 30.11 1019 7 11.26538 N/A
2:35 pm 14:35 Cloudy 32 0 32 0 100 100 Calm 30.11 1019 7 11.26538 N/A
2:55 pm 14:55 Cloudy 32 0 32 0 100 100 Calm 30.11 1019 7 11.26538 N/A
3:15 pm 15:15 Cloudy 32 0 32 0 100 100 Calm 30.11 1019 10 16.0934 N/A
3:36 pm 15:36 Cloudy 32 0 32 0 100 100 Calm 30.12 1020 10 16.0934 N/A
3:55 pm 15:55 Cloudy 32 0 32 0 100 100 Calm 30.12 1020 10 16.0934 N/A
4:15 pm 16:15 Cloudy 32 0 32 0 100 100 W 5 7 30.12 1020 10 16.0934 N/A
4:35 pm 16:35 Cloudy 32 0 32 0 100 100 WSW 6 9 30.13 1020 5 8.0467 N/A
4:55 pm 16:55 Cloudy 32 0 32 0 100 100 WSW 6 9 30.13 1020 5 8.0467 N/A
5:16 pm 17:16 Cloudy 32 0 32 0 100 100 WSW 5 7 30.14 1020 5 8.0467 N/A
5:35 pm 17:35 Cloudy 32 0 32 0 100 100 NW 5 7 30.13 1020 3 4.82802 N/A
5:56 pm 17:56 Cloudy 32 0 32 0 100 100 NNW 3 6 30.13 1020 10 16.0934 N/A
6:15 pm 18:15 Cloudy 32 0 32 0 100 100 Calm 30.13 1020 7 11.26538 N/A
6:35 pm 18:35 Cloudy 32 0 32 0 100 100 Calm 30.13 1020 10 16.0934 N/A
6:56 pm 18:56 Cloudy 32 0 32 0 100 100 Calm 30.14 1020 10 16.0934 N/A
7:16 pm 19:16 Cloudy 32 0 32 0 100 100 Calm 30.14 1020 7 11.26538 N/A
7:35 pm 19:35 Cloudy 32 0 32 0 100 100 Calm 30.14 1020 7 11.26538 N/A
7:55 pm 19:55 Cloudy 32 0 32 0 100 100 Calm 30.15 1021 7 11.26538 N/A
8:15 pm 20:15 Cloudy 32 0 32 0 100 100 Calm 30.15 1021 7 11.26538 N/A
8:36 pm 20:36 Cloudy 32 0 32 0 100 100 Calm 30.15 1021 7 11.26538 N/A
8:56 pm 20:56 Cloudy 32 0 32 0 100 100 Calm 30.15 1021 7 11.26538 N/A
9:15 pm 21:15 Cloudy 30 -1 30 -1 100 100 Calm 30.15 1021 7 11.26538 N/A
9:36 pm 21:36 Cloudy 30 -1 30 -1 100 100 Calm 30.15 1021 7 11.26538 N/A
9:56 pm 21:56 Cloudy 32 0 32 0 100 100 Calm 30.16 1021 7 11.26538 N/A
10:16 pm 22:16 Cloudy 32 0 32 0 100 100 Calm 30.16 1021 7 11.26538 N/A
10:36 pm 22:36 Cloudy 30 -1 30 -1 100 100 Calm 30.16 1021 7 11.26538 N/A
10:56 pm 22:56 Cloudy 30 -1 30 -1 100 100 Calm 30.16 1021 5 8.0467 N/A
11:16 pm 23:16 Cloudy 30 -1 30 -1 100 100 Calm 30.16 1021 5 8.0467 N/A
11:36 pm 23:36 Cloudy 30 -1 30 -1 100 100 Calm 30.16 1021 5 8.0467 N/A
11:55 pm 23:55 Cloudy 30 -1 30 -1 100 100 Calm 30.16 1021 5 8.0467 N/A

Powered by AerisWeather